Home > Weather > Marchtrenk > Past weeks

Flag for Austria Past Weather in Marchtrenk, Upper Austria, Austria — Yesterday and Last 2 Weeks

Now
68 °F

Partly sunny.


Feels Like: 68 °F
Forecast: 66 / 80 °F
Wind: 8 mph from Southwest

Location: Linz / Hoersching-Flughafen

Current Time: Jul 24, 2016 at 8:58:35 AM

Latest Report: Jul 24, 2016 at 8:20 AM


Visibility: N/A

Pressure: 30.09 "Hg

Humidity: 88%

Dew Point: 64 °F

Location of MarchtrenkLocation

Past Weather in Marchtrenk — Graph

°F

Marchtrenk Temperature Yesterday

Maximum temperature yesterday: 86 °F (at 4:50 PM)
Minimum temperature yesterday: 64 °F (at 4:20 AM)
Average temperature yesterday: 74 °F

High & Low Weather Summary for the Past Weeks

 TemperatureHumidityPressure
High91 °F (Jul 11, 3:20 PM)100% (Jul 14, 4:50 AM)30.30 "Hg (Jul 14, 4:50 AM)
Low52 °F (Jul 14, 4:50 AM)33% (Jul 20, 5:20 PM)29.83 "Hg (Jul 11, 7:20 PM)
Average69 °F74%30.06 "Hg
* Reported Jul 9 7:20 AM — Jul 24 7:20 AM, Marchtrenk, Weather by CustomWeather, © 2016

Note: Actual official high and low records may vary slightly from our data, if they occured in-between our weather recording intervals... More about our weather records

Advertising

Marchtrenk Weather History for the Previous 24 Hours

Scroll right to see more
 ConditionsComfort  
Time TempWeatherWind HumidityBarometerVisibility
7:20 AM
Sun, Jul 24
66 °FPartly sunny.6 mph94%30.09 "HgN/A
6:50 AM66 °FPartly sunny.5 mph94%30.09 "HgN/A
6:20 AM66 °FPassing clouds.6 mph94%30.09 "HgN/A
5:50 AM66 °FPassing clouds.6 mph94%30.09 "HgN/A
5:20 AM66 °FPassing clouds.6 mph94%30.07 "HgN/A
4:50 AM66 °FPassing clouds.6 mph94%30.07 "HgN/A
4:20 AM66 °FPassing clouds.7 mph94%30.09 "HgN/A
3:50 AM66 °FPassing clouds.8 mph94%30.09 "HgN/A
3:20 AM66 °FPartly cloudy.7 mph94%30.09 "HgN/A
2:50 AM66 °FPassing clouds.8 mph94%30.07 "HgN/A
2:20 AM66 °FPassing clouds.9 mph94%30.07 "HgN/A
1:50 AM66 °FPassing clouds.10 mph94%30.07 "HgN/A
1:20 AM66 °FPassing clouds.9 mph94%30.07 "HgN/A
12:50 AM68 °FSprinkles. Passing clouds.9 mph88%30.07 "HgN/A
12:20 AM68 °FSprinkles. Overcast.10 mph88%30.07 "HgN/A
11:50 PM
Sat, Jul 23
68 °FMild.8 mph94%30.07 "HgN/A
11:20 PM68 °FThunderstorms. Overcast.10 mph94%30.07 "HgN/A
10:50 PM66 °FStrong thunderstorms. Overcast.12 mph94%30.04 "Hg3 mi
10:20 PM68 °FStrong thunderstorms. Overcast.17 mph94%30.04 "Hg3 mi
9:50 PM72 °FStrong thunderstorms. Overcast.16 mph88%30.01 "Hg4 mi
9:20 PM77 °FThunderstorms. Cloudy.5 mph69%29.98 "HgN/A
8:50 PM77 °FThunderstorms. Cloudy.3 mph69%29.98 "HgN/A
8:20 PM77 °FWarm.5 mph69%29.98 "HgN/A
7:50 PM79 °FBroken clouds.5 mph65%29.98 "HgN/A
7:20 PM81 °FBroken clouds.5 mph58%29.98 "HgN/A
6:50 PM82 °FBroken clouds.5 mph55%29.98 "HgN/A
6:20 PM84 °FBroken clouds.6 mph48%29.98 "HgN/A
5:50 PM82 °FBroken clouds.5 mph55%29.98 "HgN/A
5:20 PM82 °FBroken clouds.3 mph55%29.98 "HgN/A
4:50 PM86 °FPartly sunny.3 mph49%30.01 "HgN/A
4:20 PM84 °FPartly sunny.3 mph55%30.01 "HgN/A
3:50 PM84 °FScattered clouds.2 mph48%30.01 "HgN/A
3:20 PM84 °FPassing clouds.2 mph51%30.01 "HgN/A
2:50 PM84 °FPassing clouds.5 mph51%30.01 "HgN/A
2:20 PM82 °FPassing clouds.3 mph48%30.01 "HgN/A
1:50 PM82 °FPassing clouds.2 mph51%30.01 "HgN/A
1:20 PM81 °FPassing clouds.1 mph58%30.04 "HgN/A
12:50 PM81 °FPassing clouds.2 mph62%30.04 "HgN/A
12:20 PM79 °FPassing clouds.2 mph61%30.04 "HgN/A
11:50 AM77 °FPassing clouds.3 mph65%30.04 "HgN/A
11:20 AM77 °FPassing clouds.3 mph61%30.04 "HgN/A
10:50 AM75 °FPassing clouds.2 mph69%30.04 "HgN/A
10:20 AM73 °FPassing clouds.3 mph74%30.04 "HgN/A
9:50 AM73 °FScattered clouds.2 mph74%30.04 "HgN/A
9:20 AM72 °FScattered clouds.1 mph78%30.04 "HgN/A
8:50 AM72 °FScattered clouds.2 mph78%30.04 "HgN/A
8:20 AM68 °FScattered clouds.2 mph83%30.04 "HgN/A
Weather by CustomWeather, © 2016

See weather overviewHow to use our weather pages